Starlink 33804

operational
NORAD ID: 63511 Int'l Des: 2025-071 Owner: SPXS Country: US Constellation: starlink
LEOCIRCULAR

Über Starlink 33804

Beschreibung wird geladen...

Live-Position

3D-Globus wird geladen...

Nächste Überflüge

Höhenverlauf

Altitude vs Time

uPlot chart will show altitude changes over time

Zweizeiliger Elementsatz

1 63511U 25071U 25257.38581567 .00018071 00000-0 62074-3 0 9994
2 63511 53.1575 239.0367 0001238 99.0587 261.0554 15.30201963 25400
Epoch: 14. Sept. 2025 • Age: 25 hours

Aktueller Status

Höhe 490.5 km
Geschwindigkeit 7.62 km/s
Subsatellitenpunkt -43.93°S, 41.7°W
Startdatum 7. Apr. 2025
Alter 0.4 years
Typ internet

Technische Details

Klassifizierung Payload
Masse 575.00 kg
Trockenmasse 530.00 kg
Gesamtmasse 575.00 kg
Länge 0.30 m
Durchmesser 4.10 m
Spannweite 29.00 m
Form Box + pan
Hersteller SPXS
Bus-Typ Starlink V2MO
Phasenstatus In Orbit
Besitzer/Staat SPXS/US

Große Konstellationen

Loading constellations...